| time (UTC) | temp F | wind direction | speed knots | gust knots | rain 1hr in | rain 24hr in | rain mn in | humidity % | barometer mb |
| 20260509145523 | 69 | 0 | 0.0 | 8.7 | 0.00 | 0.03 | 0.01 | 60 | 1010.1 |
| 20260509145023 | 68 | 277 | 0.9 | 7.0 | 0.00 | 0.03 | 0.01 | 58 | 1010.2 |
| 20260509144544 | 68 | 0 | 0.0 | 3.5 | 0.00 | 0.03 | 0.01 | 61 | 1010.1 |
| 20260509144023 | 67 | 0 | 0.0 | 4.3 | 0.00 | 0.03 | 0.01 | 64 | 1010.2 |
| 20260509143527 | 66 | 0 | 0.0 | 4.3 | 0.00 | 0.03 | 0.01 | 64 | 1010.2 |
| 20260509143039 | 66 | 254 | 0.0 | 3.5 | 0.00 | 0.03 | 0.01 | 64 | 1010.2 |
| 20260509142524 | 65 | 297 | 0.0 | 7.0 | 0.00 | 0.03 | 0.01 | 67 | 1010.3 |
| 20260509142023 | 65 | 0 | 0.0 | 7.0 | 0.00 | 0.03 | 0.01 | 67 | 1010.2 |
| 20260509141539 | 65 | 310 | 0.0 | 2.6 | 0.00 | 0.03 | 0.01 | 68 | 1010.1 |
| 20260509141024 | 64 | 0 | 0.0 | 6.1 | 0.00 | 0.03 | 0.01 | 68 | 1010.3 |
| 20260509140523 | 63 | 284 | 0.0 | 6.1 | 0.00 | 0.03 | 0.01 | 71 | 1010.2 |
| 20260509140054 | 63 | 0 | 0.0 | 1.7 | 0.00 | 0.03 | 0.01 | 71 | 1010.2 |
| 20260509135526 | 62 | 0 | 0.0 | 3.5 | 0.00 | 0.03 | 0.01 | 73 | 1010.2 |
| 20260509135026 | 62 | 0 | 0.0 | 3.5 | 0.00 | 0.03 | 0.01 | 74 | 1010.2 |
| 20260509134537 | 61 | 0 | 0.0 | 1.7 | 0.00 | 0.03 | 0.01 | 75 | 1010.1 |
| 20260509134023 | 60 | 263 | 0.0 | 1.7 | 0.00 | 0.03 | 0.01 | 77 | 1010.1 |
| 20260509133521 | 59 | 0 | 0.0 | 1.7 | 0.00 | 0.03 | 0.01 | 78 | 1010.1 |
| 20260509133036 | 59 | 266 | 0.0 | 0.9 | 0.00 | 0.03 | 0.01 | 79 | 1010.1 |
| 20260509132522 | 58 | 0 | 0.0 | 1.7 | 0.00 | 0.03 | 0.01 | 81 | 1010.1 |
| 20260509132023 | 58 | 0 | 0.0 | 3.5 | 0.00 | 0.03 | 0.01 | 82 | 1010.2 |
| 20260509131545 | 57 | 0 | 0.0 | 3.5 | 0.00 | 0.03 | 0.01 | 84 | 1010.2 |
| 20260509131023 | 56 | 0 | 0.0 | 0.9 | 0.00 | 0.03 | 0.01 | 85 | 1010.1 |
| 20260509130523 | 55 | 0 | 0.0 | 3.5 | 0.00 | 0.03 | 0.01 | 86 | 1010.2 |
| 20260509130035 | 55 | 0 | 0.0 | 3.5 | 0.00 | 0.03 | 0.01 | 87 | 1010.2 |
| 20260509125527 | 55 | 0 | 0.0 | 1.7 | 0.00 | 0.03 | 0.01 | 87 | 1010.1 |
| 20260509125026 | 54 | 0 | 0.0 | 1.7 | 0.00 | 0.03 | 0.01 | 88 | 1010.1 |
| 20260509124542 | 54 | 0 | 0.0 | 3.5 | 0.00 | 0.03 | 0.01 | 89 | 1009.9 |
| 20260509124023 | 53 | 0 | 0.0 | 3.5 | 0.00 | 0.03 | 0.01 | 89 | 1009.9 |
| 20260509123523 | 53 | 0 | 0.0 | 0.9 | 0.00 | 0.03 | 0.01 | 89 | 1009.9 |
| 20260509123037 | 53 | 0 | 0.0 | 0.0 | 0.00 | 0.03 | 0.01 | 89 | 1009.8 |
| 20260509122522 | 53 | 0 | 0.0 | 0.0 | 0.00 | 0.03 | 0.01 | 89 | 1009.8 |
| 20260509122020 | 52 | 0 | 0.0 | 3.5 | 0.00 | 0.03 | 0.01 | 89 | 1009.7 |
| 20260509121551 | 52 | 0 | 0.0 | 3.5 | 0.00 | 0.03 | 0.01 | 90 | 1009.7 |
| 20260509121031 | 52 | 0 | 0.0 | 3.5 | 0.00 | 0.03 | 0.01 | 89 | 1009.7 |
| 20260509120523 | 51 | 0 | 0.0 | 3.5 | 0.00 | 0.03 | 0.01 | 90 | 1009.6 |
| 20260509120038 | 51 | 0 | 0.0 | 0.0 | 0.00 | 0.03 | 0.01 | 90 | 1009.7 |
| 20260509115523 | 51 | 0 | 0.0 | 0.0 | 0.00 | 0.03 | 0.01 | 90 | 1009.7 |
| 20260509115023 | 51 | 0 | 0.0 | 0.0 | 0.00 | 0.03 | 0.01 | 90 | 1009.6 |
| 20260509114535 | 51 | 0 | 0.0 | 0.0 | 0.01 | 0.03 | 0.01 | 90 | 1009.5 |
| 20260509114023 | 51 | 0 | 0.0 | 0.0 | 0.01 | 0.03 | 0.01 | 89 | 1009.5 |
| 20260509113522 | 51 | 0 | 0.0 | 0.0 | 0.01 | 0.03 | 0.01 | 89 | 1009.4 |
| 20260509113034 | 51 | 0 | 0.0 | 0.0 | 0.01 | 0.03 | 0.01 | 90 | 1009.3 |
| 20260509112521 | 51 | 0 | 0.0 | 0.0 | 0.01 | 0.03 | 0.01 | 90 | 1009.3 |
| 20260509112023 | 51 | 0 | 0.0 | 0.0 | 0.01 | 0.03 | 0.01 | 90 | 1009.4 |
| 20260509111538 | 51 | 0 | 0.0 | 0.0 | 0.01 | 0.03 | 0.01 | 89 | 1009.3 |
| 20260509111024 | 51 | 0 | 0.0 | 0.9 | 0.01 | 0.03 | 0.01 | 89 | 1009.2 |
| 20260509110523 | 51 | 0 | 0.0 | 0.9 | 0.01 | 0.03 | 0.01 | 89 | 1009.3 |
| 20260509110038 | 51 | 0 | 0.0 | 0.0 | 0.01 | 0.03 | 0.01 | 90 | 1009.3 |
| 20260509105525 | 51 | 0 | 0.0 | 0.0 | 0.01 | 0.03 | 0.01 | 90 | 1009.1 |
| 20260509105023 | 51 | 0 | 0.0 | 0.0 | 0.01 | 0.03 | 0.01 | 90 | 1009.1 |
| 20260509104537 | 51 | 0 | 0.0 | 0.0 | 0.00 | 0.02 | 0.00 | 89 | 1009.1 |
| 20260509104024 | 52 | 0 | 0.0 | 0.0 | 0.00 | 0.02 | 0.00 | 89 | 1009.0 |
| 20260509103526 | 52 | 0 | 0.0 | 0.0 | 0.00 | 0.02 | 0.00 | 90 | 1008.9 |
| 20260509103037 | 52 | 0 | 0.0 | 0.0 | 0.00 | 0.02 | 0.00 | 89 | 1008.9 |
| 20260509102525 | 52 | 0 | 0.0 | 0.0 | 0.00 | 0.02 | 0.00 | 89 | 1008.8 |
| 20260509102023 | 52 | 0 | 0.0 | 0.0 | 0.00 | 0.02 | 0.00 | 89 | 1008.8 |
| 20260509101537 | 52 | 0 | 0.0 | 0.0 | 0.00 | 0.02 | 0.00 | 89 | 1008.9 |
| 20260509101025 | 52 | 0 | 0.0 | 0.0 | 0.00 | 0.02 | 0.00 | 89 | 1008.9 |
| 20260509100523 | 52 | 0 | 0.0 | 0.0 | 0.00 | 0.02 | 0.00 | 89 | 1008.9 |
| 20260509100038 | 52 | 0 | 0.0 | 0.0 | 0.00 | 0.02 | 0.00 | 89 | 1008.8 |
| 20260509095526 | 52 | 0 | 0.0 | 0.0 | 0.00 | 0.02 | 0.00 | 89 | 1008.9 |
| 20260509095024 | 52 | 0 | 0.0 | 0.0 | 0.00 | 0.02 | 0.00 | 89 | 1008.9 |
| 20260509094538 | 52 | 0 | 0.0 | 0.0 | 0.00 | 0.02 | 0.00 | 89 | 1008.9 |
| 20260509094023 | 52 | 0 | 0.0 | 0.0 | 0.00 | 0.02 | 0.00 | 89 | 1008.9 |
| 20260509093526 | 53 | 0 | 0.0 | 0.0 | 0.00 | 0.02 | 0.00 | 89 | 1008.9 |
| 20260509093038 | 53 | 0 | 0.0 | 0.0 | 0.00 | 0.02 | 0.00 | 89 | 1008.9 |
| 20260509092525 | 53 | 0 | 0.0 | 0.0 | 0.00 | 0.02 | 0.00 | 89 | 1008.9 |
| 20260509092025 | 53 | 0 | 0.0 | 0.0 | 0.00 | 0.02 | 0.00 | 89 | 1008.9 |
| 20260509091536 | 53 | 0 | 0.0 | 0.0 | 0.00 | 0.02 | 0.00 | 89 | 1009.0 |
| 20260509091025 | 53 | 0 | 0.0 | 0.0 | 0.00 | 0.02 | 0.00 | 89 | 1009.0 |
| 20260509090526 | 53 | 0 | 0.0 | 0.0 | 0.00 | 0.02 | 0.00 | 89 | 1009.0 |
| 20260509090035 | 53 | 0 | 0.0 | 0.0 | 0.00 | 0.02 | 0.00 | 89 | 1009.1 |
| 20260509085525 | 53 | 0 | 0.0 | 0.0 | 0.00 | 0.02 | 0.00 | 89 | 1009.1 |
| 20260509085026 | 53 | 0 | 0.0 | 0.0 | 0.00 | 0.02 | 0.00 | 89 | 1009.1 |
| 20260509084544 | 53 | 0 | 0.0 | 0.0 | 0.00 | 0.02 | 0.00 | 89 | 1009.0 |
| 20260509084025 | 53 | 0 | 0.0 | 0.0 | 0.00 | 0.02 | 0.00 | 89 | 1009.0 |
| 20260509083524 | 54 | 0 | 0.0 | 0.0 | 0.00 | 0.02 | 0.00 | 89 | 1009.0 |
| 20260509083046 | 54 | 0 | 0.0 | 0.0 | 0.00 | 0.02 | 0.00 | 89 | 1009.0 |
| 20260509082526 | 54 | 0 | 0.0 | 0.0 | 0.00 | 0.02 | 0.00 | 89 | 1009.0 |
| 20260509082026 | 54 | 0 | 0.0 | 1.7 | 0.00 | 0.02 | 0.00 | 89 | 1008.9 |
| 20260509081536 | 54 | 0 | 0.0 | 4.3 | 0.00 | 0.02 | 0.00 | 89 | 1008.9 |
| 20260509081023 | 54 | 0 | 0.0 | 4.3 | 0.00 | 0.02 | 0.00 | 89 | 1009.0 |
| 20260509080523 | 54 | 0 | 0.0 | 1.7 | 0.00 | 0.02 | 0.00 | 89 | 1008.9 |
| 20260509080037 | 54 | 0 | 0.0 | 0.0 | 0.00 | 0.02 | 0.00 | 89 | 1008.9 |
| 20260509075525 | 53 | 0 | 0.0 | 0.0 | 0.00 | 0.02 | 0.00 | 89 | 1008.8 |
| 20260509075024 | 53 | 0 | 0.0 | 0.0 | 0.00 | 0.02 | 0.00 | 89 | 1009.0 |
| 20260509074537 | 53 | 0 | 0.0 | 0.9 | 0.00 | 0.02 | 0.00 | 89 | 1009.0 |
| 20260509074023 | 53 | 0 | 0.0 | 0.9 | 0.00 | 0.02 | 0.00 | 89 | 1008.9 |
| 20260509073523 | 53 | 0 | 0.0 | 0.0 | 0.00 | 0.02 | 0.00 | 89 | 1009.1 |
| 20260509073036 | 53 | 0 | 0.0 | 0.0 | 0.00 | 0.02 | 0.00 | 89 | 1009.2 |
| 20260509072521 | 53 | 0 | 0.0 | 0.0 | 0.00 | 0.02 | 0.00 | 89 | 1009.2 |
| 20260509072022 | 53 | 0 | 0.0 | 0.0 | 0.00 | 0.02 | 0.00 | 89 | 1009.2 |
| 20260509071542 | 52 | 0 | 0.0 | 0.0 | 0.00 | 0.02 | 0.00 | 89 | 1009.2 |
| 20260509071023 | 52 | 0 | 0.0 | 0.0 | 0.00 | 0.02 | 0.00 | 89 | 1009.3 |
| 20260509070523 | 52 | 0 | 0.0 | 0.0 | 0.00 | 0.02 | 0.00 | 89 | 1009.2 |
| 20260509070037 | 52 | 0 | 0.0 | 0.0 | 0.00 | 0.02 | 0.00 | 89 | 1009.3 |
| 20260509065522 | 53 | 0 | 0.0 | 0.0 | 0.00 | 0.02 | 0.00 | 89 | 1009.3 |
| 20260509065023 | 53 | 0 | 0.0 | 0.0 | 0.00 | 0.02 | 0.00 | 89 | 1009.4 |
| 20260509064536 | 53 | 0 | 0.0 | 0.0 | 0.00 | 0.02 | 0.00 | 89 | 1009.5 |
| 20260509064027 | 53 | 0 | 0.0 | 0.0 | 0.00 | 0.02 | 0.00 | 89 | 1009.4 |
| 20260509063526 | 53 | 0 | 0.0 | 0.0 | 0.00 | 0.02 | 0.00 | 89 | 1009.4 |
| 20260509063035 | 53 | 0 | 0.0 | 0.0 | 0.00 | 0.02 | 0.00 | 89 | 1009.5 |
| 20260509062526 | 53 | 0 | 0.0 | 0.0 | 0.00 | 0.02 | 0.00 | 89 | 1009.4 |
| 20260509062026 | 53 | 0 | 0.0 | 0.0 | 0.00 | 0.02 | 0.00 | 89 | 1009.5 |
| 20260509061542 | 53 | 0 | 0.0 | 0.0 | 0.00 | 0.02 | 0.00 | 89 | 1009.5 |
| 20260509061023 | 53 | 0 | 0.0 | 0.0 | 0.00 | 0.02 | 0.00 | 89 | 1009.6 |
| 20260509060521 | 53 | 0 | 0.0 | 0.0 | 0.00 | 0.02 | 0.00 | 89 | 1009.6 |
| 20260509060038 | 53 | 0 | 0.0 | 0.0 | 0.00 | 0.02 | 0.00 | 89 | 1009.7 |
| 20260509055523 | 53 | 0 | 0.0 | 0.0 | 0.00 | 0.02 | 0.00 | 89 | 1009.6 |
| 20260509055024 | 53 | 0 | 0.0 | 0.0 | 0.00 | 0.02 | 0.00 | 89 | 1009.6 |
| 20260509054540 | 53 | 0 | 0.0 | 0.0 | 0.00 | 0.02 | 0.00 | 89 | 1009.7 |
| 20260509054024 | 53 | 0 | 0.0 | 0.0 | 0.00 | 0.02 | 0.00 | 89 | 1009.7 |
| 20260509053521 | 54 | 0 | 0.0 | 0.0 | 0.00 | 0.02 | 0.00 | 89 | 1009.6 |
| 20260509053058 | 54 | 0 | 0.0 | 0.0 | 0.00 | 0.02 | 0.00 | 89 | 1009.6 |
| 20260509052525 | 54 | 0 | 0.0 | 0.0 | 0.00 | 0.02 | 0.00 | 89 | 1009.7 |
| 20260509052023 | 54 | 0 | 0.0 | 0.0 | 0.00 | 0.02 | 0.00 | 89 | 1009.7 |
| 20260509051536 | 54 | 0 | 0.0 | 0.0 | 0.00 | 0.02 | 0.00 | 89 | 1009.8 |
| 20260509051025 | 54 | 0 | 0.0 | 0.0 | 0.00 | 0.02 | 0.00 | 89 | 1009.8 |
| 20260509050523 | 53 | 0 | 0.0 | 0.0 | 0.00 | 0.02 | 0.00 | 89 | 1009.8 |
| 20260509050037 | 53 | 0 | 0.0 | 0.0 | 0.00 | 0.02 | 0.00 | 89 | 1009.8 |
| 20260509045524 | 53 | 0 | 0.0 | 0.0 | 0.00 | 0.02 | 0.02 | 89 | 1009.7 |
| 20260509045024 | 53 | 0 | 0.0 | 0.0 | 0.00 | 0.02 | 0.02 | 89 | 1009.6 |
| 20260509044539 | 54 | 0 | 0.0 | 0.0 | 0.00 | 0.02 | 0.02 | 89 | 1009.6 |
| 20260509044024 | 54 | 0 | 0.0 | 0.0 | 0.00 | 0.02 | 0.02 | 89 | 1009.5 |
| 20260509043522 | 54 | 0 | 0.0 | 0.0 | 0.00 | 0.02 | 0.02 | 89 | 1009.6 |
| 20260509043048 | 54 | 0 | 0.0 | 0.0 | 0.00 | 0.02 | 0.02 | 89 | 1009.6 |
| 20260509042524 | 54 | 0 | 0.0 | 0.0 | 0.00 | 0.02 | 0.02 | 89 | 1009.6 |
| 20260509042025 | 54 | 0 | 0.0 | 0.0 | 0.00 | 0.02 | 0.02 | 89 | 1009.5 |
| 20260509041550 | 54 | 0 | 0.0 | 0.0 | 0.00 | 0.02 | 0.02 | 89 | 1009.5 |
| 20260509041023 | 54 | 0 | 0.0 | 0.0 | 0.00 | 0.02 | 0.02 | 89 | 1009.6 |
| 20260509040524 | 54 | 0 | 0.0 | 0.0 | 0.00 | 0.02 | 0.02 | 89 | 1009.6 |
| 20260509040035 | 54 | 0 | 0.0 | 0.0 | 0.00 | 0.02 | 0.02 | 89 | 1009.6 |
| 20260509035524 | 55 | 0 | 0.0 | 0.0 | 0.00 | 0.02 | 0.02 | 89 | 1009.6 |
| 20260509035026 | 55 | 0 | 0.0 | 0.0 | 0.00 | 0.02 | 0.02 | 89 | 1009.8 |
| 20260509034559 | 55 | 0 | 0.0 | 0.0 | 0.00 | 0.02 | 0.02 | 89 | 1009.7 |
| 20260509034024 | 55 | 0 | 0.0 | 0.0 | 0.00 | 0.02 | 0.02 | 89 | 1009.6 |
| 20260509033525 | 55 | 0 | 0.0 | 0.0 | 0.00 | 0.02 | 0.02 | 88 | 1009.6 |
| 20260509033037 | 55 | 0 | 0.0 | 0.0 | 0.00 | 0.02 | 0.02 | 89 | 1009.6 |
| 20260509032524 | 55 | 0 | 0.0 | 0.0 | 0.00 | 0.02 | 0.02 | 89 | 1009.6 |
| 20260509032023 | 55 | 0 | 0.0 | 0.0 | 0.00 | 0.02 | 0.02 | 89 | 1009.5 |
| 20260509031539 | 55 | 0 | 0.0 | 0.0 | 0.00 | 0.02 | 0.02 | 88 | 1009.5 |
| 20260509031024 | 55 | 0 | 0.0 | 0.0 | 0.00 | 0.02 | 0.02 | 88 | 1009.6 |
| 20260509030526 | 55 | 0 | 0.0 | 0.0 | 0.00 | 0.02 | 0.02 | 88 | 1009.5 |
| 20260509030036 | 55 | 0 | 0.0 | 0.0 | 0.00 | 0.02 | 0.02 | 88 | 1009.6 |
| 20260509025524 | 56 | 0 | 0.0 | 0.0 | 0.00 | 0.02 | 0.02 | 88 | 1009.6 |
| 20260509025024 | 56 | 0 | 0.0 | 0.0 | 0.00 | 0.02 | 0.02 | 88 | 1009.5 |
| 20260509024536 | 56 | 0 | 0.0 | 0.0 | 0.00 | 0.02 | 0.02 | 88 | 1009.4 |
| 20260509024028 | 56 | 0 | 0.0 | 0.0 | 0.00 | 0.02 | 0.02 | 88 | 1009.3 |
| 20260509023526 | 56 | 0 | 0.0 | 0.0 | 0.00 | 0.02 | 0.02 | 88 | 1009.2 |
| 20260509023040 | 56 | 0 | 0.0 | 0.0 | 0.00 | 0.02 | 0.02 | 87 | 1009.2 |
| 20260509022525 | 57 | 0 | 0.0 | 0.0 | 0.00 | 0.02 | 0.02 | 87 | 1009.2 |
| 20260509022024 | 57 | 0 | 0.0 | 0.0 | 0.00 | 0.02 | 0.02 | 87 | 1009.0 |
| 20260509021538 | 57 | 0 | 0.0 | 0.0 | 0.00 | 0.02 | 0.02 | 87 | 1008.9 |
| 20260509021025 | 58 | 0 | 0.0 | 0.0 | 0.00 | 0.02 | 0.02 | 87 | 1009.0 |
| 20260509020523 | 58 | 0 | 0.0 | 0.0 | 0.00 | 0.02 | 0.02 | 86 | 1009.0 |
| 20260509020047 | 58 | 0 | 0.0 | 0.0 | 0.00 | 0.02 | 0.02 | 86 | 1009.0 |
| 20260509015526 | 59 | 0 | 0.0 | 0.0 | 0.00 | 0.02 | 0.02 | 86 | 1008.8 |
| 20260509015025 | 59 | 0 | 0.0 | 0.0 | 0.00 | 0.02 | 0.02 | 85 | 1008.8 |
| 20260509014535 | 59 | 0 | 0.0 | 0.0 | 0.00 | 0.02 | 0.02 | 84 | 1008.8 |
| 20260509014027 | 60 | 0 | 0.0 | 0.0 | 0.00 | 0.02 | 0.02 | 83 | 1009.0 |
| 20260509013524 | 60 | 0 | 0.0 | 0.0 | 0.00 | 0.02 | 0.02 | 83 | 1008.7 |
| 20260509013050 | 61 | 0 | 0.0 | 0.0 | 0.00 | 0.02 | 0.02 | 82 | 1008.7 |
| 20260509012527 | 61 | 0 | 0.0 | 0.0 | 0.00 | 0.02 | 0.02 | 81 | 1008.6 |
| 20260509012023 | 62 | 0 | 0.0 | 0.0 | 0.00 | 0.02 | 0.02 | 81 | 1008.5 |
| 20260509011541 | 62 | 0 | 0.0 | 0.0 | 0.00 | 0.02 | 0.02 | 80 | 1008.5 |
| 20260509011025 | 63 | 0 | 0.0 | 0.0 | 0.00 | 0.02 | 0.02 | 80 | 1008.4 |
| 20260509010524 | 63 | 0 | 0.0 | 0.0 | 0.00 | 0.02 | 0.02 | 79 | 1008.4 |
| 20260509010049 | 63 | 0 | 0.0 | 3.5 | 0.00 | 0.02 | 0.02 | 78 | 1008.4 |
| 20260509005526 | 64 | 0 | 0.0 | 3.5 | 0.00 | 0.02 | 0.02 | 77 | 1008.4 |
| 20260509005028 | 64 | 0 | 0.0 | 2.6 | 0.00 | 0.02 | 0.02 | 77 | 1008.3 |
| 20260509004537 | 65 | 0 | 0.0 | 1.7 | 0.00 | 0.02 | 0.02 | 76 | 1008.3 |
| 20260509004024 | 65 | 0 | 0.0 | 1.7 | 0.00 | 0.02 | 0.02 | 76 | 1008.1 |
| 20260509003526 | 65 | 0 | 0.0 | 1.7 | 0.00 | 0.02 | 0.02 | 76 | 1008.2 |
| 20260509003037 | 65 | 0 | 0.0 | 2.6 | 0.00 | 0.02 | 0.02 | 76 | 1008.1 |
| 20260509002524 | 65 | 320 | 0.0 | 2.6 | 0.00 | 0.02 | 0.02 | 75 | 1008.0 |
| 20260509002024 | 66 | 0 | 0.0 | 2.6 | 0.00 | 0.02 | 0.02 | 74 | 1008.1 |
| 20260509001536 | 66 | 343 | 0.0 | 3.5 | 0.00 | 0.02 | 0.02 | 74 | 1008.0 |
| 20260509001025 | 66 | 0 | 0.9 | 3.5 | 0.00 | 0.02 | 0.02 | 73 | 1007.9 |
| 20260509000524 | 66 | 0 | 0.0 | 2.6 | 0.00 | 0.02 | 0.02 | 74 | 1008.0 |
| 20260509000039 | 66 | 0 | 0.0 | 2.6 | 0.00 | 0.02 | 0.02 | 73 | 1007.9 |
| 20260508235524 | 66 | 0 | 0.0 | 2.6 | 0.00 | 0.02 | 0.02 | 72 | 1007.9 |
| 20260508235025 | 66 | 0 | 0.0 | 3.5 | 0.00 | 0.02 | 0.02 | 73 | 1007.7 |
| 20260508234538 | 66 | 0 | 0.9 | 3.5 | 0.00 | 0.02 | 0.02 | 73 | 1007.7 |
| 20260508234026 | 66 | 11 | 0.0 | 2.6 | 0.00 | 0.02 | 0.02 | 73 | 1007.8 |
| 20260508233528 | 66 | 301 | 0.0 | 7.0 | 0.00 | 0.02 | 0.02 | 73 | 1007.9 |
| 20260508233037 | 65 | 0 | 0.9 | 7.0 | 0.00 | 0.02 | 0.02 | 74 | 1008.0 |
| 20260508232524 | 66 | 0 | 3.5 | 7.0 | 0.00 | 0.02 | 0.02 | 73 | 1008.1 |
| 20260508232024 | 66 | 0 | 0.0 | 5.2 | 0.00 | 0.02 | 0.02 | 74 | 1008.1 |
| 20260508231545 | 66 | 0 | 0.0 | 3.5 | 0.00 | 0.02 | 0.02 | 75 | 1008.1 |
| 20260508231029 | 65 | 297 | 0.0 | 3.5 | 0.00 | 0.02 | 0.02 | 75 | 1008.1 |
| 20260508230524 | 65 | 0 | 0.0 | 3.5 | 0.00 | 0.02 | 0.02 | 74 | 1008.1 |
| 20260508230050 | 64 | 0 | 0.9 | 3.5 | 0.00 | 0.02 | 0.02 | 75 | 1008.1 |
| 20260508225524 | 64 | 300 | 0.9 | 3.5 | 0.00 | 0.02 | 0.02 | 76 | 1008.0 |
| 20260508225025 | 64 | 0 | 0.9 | 2.6 | 0.01 | 0.02 | 0.02 | 76 | 1008.1 |
| 20260508224544 | 64 | 0 | 0.0 | 0.0 | 0.01 | 0.02 | 0.02 | 80 | 1007.9 |
| 20260508224024 | 63 | 0 | 0.0 | 0.0 | 0.01 | 0.02 | 0.02 | 79 | 1007.9 |
| 20260508223524 | 63 | 0 | 0.0 | 0.0 | 0.01 | 0.02 | 0.02 | 78 | 1007.9 |
| 20260508223039 | 63 | 0 | 0.0 | 0.0 | 0.01 | 0.02 | 0.02 | 80 | 1007.8 |
| 20260508222528 | 63 | 0 | 0.0 | 0.9 | 0.01 | 0.02 | 0.02 | 80 | 1007.7 |
| 20260508222026 | 63 | 0 | 0.0 | 0.9 | 0.01 | 0.02 | 0.02 | 81 | 1007.6 |
| 20260508221545 | 63 | 5 | 0.0 | 0.9 | 0.01 | 0.02 | 0.02 | 83 | 1007.5 |
| 20260508221026 | 62 | 0 | 0.0 | 1.7 | 0.01 | 0.02 | 0.02 | 83 | 1007.6 |
| 20260508220525 | 61 | 0 | 0.0 | 2.6 | 0.01 | 0.02 | 0.02 | 84 | 1007.6 |
| 20260508220037 | 61 | 0 | 0.0 | 5.2 | 0.01 | 0.02 | 0.02 | 85 | 1007.4 |
| 20260508215524 | 60 | 0 | 0.0 | 5.2 | 0.01 | 0.02 | 0.02 | 86 | 1007.3 |
| 20260508215023 | 60 | 0 | 0.0 | 1.7 | 0.00 | 0.01 | 0.01 | 85 | 1007.6 |
| 20260508214541 | 60 | 0 | 0.0 | 0.0 | 0.00 | 0.01 | 0.01 | 85 | 1007.9 |
| 20260508214024 | 60 | 0 | 0.0 | 3.5 | 0.00 | 0.01 | 0.01 | 85 | 1008.2 |
| 20260508213526 | 60 | 0 | 0.0 | 3.5 | 0.00 | 0.01 | 0.01 | 85 | 1008.5 |
| 20260508213040 | 60 | 0 | 0.0 | 4.3 | 0.00 | 0.01 | 0.01 | 84 | 1008.7 |
| 20260508212524 | 61 | 0 | 0.0 | 4.3 | 0.00 | 0.01 | 0.01 | 84 | 1009.0 |
| 20260508212025 | 61 | 0 | 0.0 | 4.3 | 0.00 | 0.01 | 0.01 | 84 | 1009.1 |
| 20260508211538 | 61 | 0 | 0.0 | 2.6 | 0.00 | 0.01 | 0.01 | 84 | 1009.1 |
| 20260508211025 | 61 | 0 | 0.0 | 2.6 | 0.00 | 0.01 | 0.01 | 84 | 1009.2 |
| 20260508210526 | 61 | 0 | 0.0 | 0.0 | 0.00 | 0.01 | 0.01 | 84 | 1009.2 |
| 20260508210036 | 61 | 0 | 0.0 | 0.0 | 0.00 | 0.01 | 0.01 | 84 | 1009.4 |
| 20260508205525 | 61 | 0 | 0.0 | 1.7 | 0.00 | 0.01 | 0.01 | 84 | 1009.4 |
| 20260508205030 | 61 | 0 | 0.0 | 1.7 | 0.00 | 0.01 | 0.01 | 82 | 1009.4 |
| 20260508204544 | 61 | 0 | 0.0 | 3.5 | 0.00 | 0.01 | 0.01 | 83 | 1009.4 |
| 20260508204023 | 62 | 0 | 0.0 | 3.5 | 0.00 | 0.01 | 0.01 | 83 | 1009.5 |
| 20260508203523 | 62 | 0 | 0.0 | 4.3 | 0.00 | 0.01 | 0.01 | 82 | 1009.5 |
| 20260508203035 | 62 | 0 | 0.0 | 4.3 | 0.00 | 0.01 | 0.01 | 82 | 1009.4 |
| 20260508202526 | 63 | 0 | 0.0 | 3.5 | 0.01 | 0.01 | 0.01 | 81 | 1009.5 |
| 20260508202023 | 63 | 0 | 0.0 | 3.5 | 0.01 | 0.01 | 0.01 | 80 | 1009.5 |
| 20260508201536 | 63 | 0 | 0.0 | 2.6 | 0.01 | 0.01 | 0.01 | 80 | 1009.6 |
| 20260508201027 | 63 | 0 | 0.0 | 2.6 | 0.01 | 0.01 | 0.01 | 80 | 1009.5 |
| 20260508200523 | 63 | 0 | 0.0 | 1.7 | 0.01 | 0.01 | 0.01 | 80 | 1009.4 |
| 20260508200050 | 63 | 0 | 0.0 | 1.7 | 0.01 | 0.01 | 0.01 | 80 | 1009.4 |
| 20260508195522 | 64 | 0 | 0.0 | 1.7 | 0.01 | 0.01 | 0.01 | 81 | 1009.5 |
| 20260508195022 | 64 | 0 | 0.0 | 4.3 | 0.01 | 0.01 | 0.01 | 80 | 1009.4 |
| 20260508194535 | 64 | 0 | 0.0 | 4.3 | 0.01 | 0.01 | 0.01 | 80 | 1009.4 |
| 20260508194020 | 64 | 0 | 0.0 | 5.2 | 0.01 | 0.01 | 0.01 | 80 | 1009.4 |
| 20260508193526 | 64 | 302 | 0.0 | 6.1 | 0.01 | 0.01 | 0.01 | 80 | 1009.5 |
| 20260508193037 | 64 | 270 | 0.0 | 6.1 | 0.01 | 0.01 | 0.01 | 80 | 1009.7 |
| 20260508192525 | 64 | 286 | 1.7 | 6.1 | 0.00 | 0.00 | 0.00 | 80 | 1009.5 |
| 20260508192024 | 64 | 0 | 0.0 | 0.0 | 0.00 | 0.00 | 0.00 | 79 | 1009.1 |
| 20260508191535 | 64 | 0 | 0.0 | 0.0 | 0.00 | 0.00 | 0.00 | 77 | 1009.0 |
| 20260508191021 | 64 | 0 | 0.0 | 0.0 | 0.00 | 0.00 | 0.00 | 76 | 1008.9 |
| 20260508190521 | 64 | 0 | 0.0 | 0.0 | 0.00 | 0.00 | 0.00 | 74 | 1008.9 |
| 20260508190043 | 64 | 0 | 0.0 | 0.0 | 0.00 | 0.00 | 0.00 | 74 | 1009.0 |
| 20260508185525 | 64 | 0 | 0.0 | 0.9 | 0.00 | 0.00 | 0.00 | 76 | 1009.1 |
| 20260508185021 | 65 | 0 | 0.0 | 1.7 | 0.00 | 0.00 | 0.00 | 78 | 1009.2 |
| 20260508184541 | 64 | 0 | 0.0 | 1.7 | 0.00 | 0.00 | 0.00 | 79 | 1009.2 |
| 20260508184020 | 64 | 0 | 0.0 | 0.0 | 0.00 | 0.00 | 0.00 | 81 | 1009.2 |
| 20260508183520 | 64 | 0 | 0.0 | 0.0 | 0.00 | 0.00 | 0.00 | 80 | 1009.3 |
| 20260508183037 | 63 | 0 | 0.0 | 0.0 | 0.00 | 0.00 | 0.00 | 80 | 1009.2 |
| 20260508182526 | 63 | 0 | 0.0 | 0.0 | 0.00 | 0.00 | 0.00 | 79 | 1009.1 |
| 20260508182023 | 63 | 0 | 0.0 | 0.9 | 0.00 | 0.00 | 0.00 | 78 | 1009.2 |
| 20260508181537 | 63 | 0 | 0.0 | 1.7 | 0.00 | 0.00 | 0.00 | 77 | 1009.2 |
| 20260508181023 | 63 | 0 | 0.0 | 1.7 | 0.00 | 0.00 | 0.00 | 77 | 1009.6 |
| 20260508180525 | 63 | 171 | 0.0 | 0.0 | 0.00 | 0.00 | 0.00 | 79 | 1009.8 |
| 20260508180035 | 63 | 0 | 0.0 | 0.0 | 0.00 | 0.00 | 0.00 | 81 | 1009.3 |
| 20260508175520 | 63 | 0 | 0.0 | 0.0 | 0.00 | 0.00 | 0.00 | 79 | 1009.4 |
| 20260508175024 | 63 | 0 | 0.0 | 0.0 | 0.00 | 0.00 | 0.00 | 80 | 1009.5 |
| 20260508174539 | 63 | 0 | 0.0 | 0.0 | 0.00 | 0.00 | 0.00 | 78 | 1009.2 |
| 20260508174022 | 63 | 0 | 0.0 | 0.0 | 0.00 | 0.00 | 0.00 | 75 | 1009.3 |
| 20260508173521 | 64 | 0 | 0.0 | 1.7 | 0.00 | 0.00 | 0.00 | 71 | 1009.6 |
| 20260508173038 | 64 | 0 | 0.0 | 2.6 | 0.00 | 0.00 | 0.00 | 70 | 1009.6 |
| 20260508172524 | 64 | 149 | 0.0 | 5.2 | 0.00 | 0.00 | 0.00 | 69 | 1010.0 |
| 20260508172023 | 64 | 171 | 0.0 | 5.2 | 0.00 | 0.00 | 0.00 | 68 | 1010.2 |
| 20260508171535 | 65 | 220 | 0.0 | 4.3 | 0.00 | 0.00 | 0.00 | 68 | 1009.9 |
| 20260508171022 | 65 | 0 | 0.0 | 1.7 | 0.00 | 0.00 | 0.00 | 67 | 1010.0 |
| 20260508170523 | 65 | 0 | 0.0 | 1.7 | 0.00 | 0.00 | 0.00 | 67 | 1010.1 |
| 20260508170036 | 65 | 219 | 0.0 | 1.7 | 0.00 | 0.00 | 0.00 | 67 | 1010.2 |
| 20260508165524 | 64 | 0 | 0.0 | 1.7 | 0.00 | 0.00 | 0.00 | 69 | 1010.2 |
| 20260508165023 | 64 | 144 | 0.0 | 1.7 | 0.00 | 0.00 | 0.00 | 70 | 1010.3 |
| 20260508164538 | 64 | 0 | 0.0 | 0.0 | 0.00 | 0.00 | 0.00 | 70 | 1010.3 |
| 20260508164026 | 63 | 0 | 0.0 | 4.3 | 0.00 | 0.00 | 0.00 | 69 | 1010.6 |
| 20260508163523 | 63 | 0 | 0.0 | 4.3 | 0.00 | 0.00 | 0.00 | 71 | 1010.2 |
| 20260508163034 | 62 | 315 | 0.0 | 3.5 | 0.00 | 0.00 | 0.00 | 71 | 1009.8 |
| 20260508162525 | 62 | 0 | 0.9 | 4.3 | 0.00 | 0.00 | 0.00 | 71 | 1009.6 |
| 20260508162024 | 63 | 0 | 0.0 | 4.3 | 0.00 | 0.00 | 0.00 | 70 | 1009.8 |
| 20260508161539 | 63 | 0 | 0.0 | 0.0 | 0.00 | 0.00 | 0.00 | 69 | 1009.6 |
| 20260508161025 | 63 | 0 | 0.0 | 0.0 | 0.00 | 0.00 | 0.00 | 68 | 1010.2 |
| 20260508160524 | 63 | 0 | 0.0 | 0.0 | 0.00 | 0.00 | 0.00 | 69 | 1010.5 |
| 20260508160036 | 63 | 0 | 0.0 | 1.7 | 0.00 | 0.00 | 0.00 | 69 | 1010.6 |
| 20260508155527 | 63 | 0 | 0.0 | 1.7 | 0.00 | 0.00 | 0.00 | 68 | 1010.6 |
| 20260508155025 | 63 | 156 | 0.0 | 2.6 | 0.00 | 0.00 | 0.00 | 68 | 1010.6 |
| 20260508154536 | 63 | 0 | 0.0 | 2.6 | 0.00 | 0.00 | 0.00 | 68 | 1010.5 |
| 20260508154025 | 63 | 0 | 0.0 | 2.6 | 0.00 | 0.00 | 0.00 | 69 | 1010.6 |
| 20260508153526 | 62 | 189 | 0.0 | 1.7 | 0.00 | 0.00 | 0.00 | 68 | 1010.4 |
| 20260508153037 | 62 | 0 | 0.0 | 0.9 | 0.00 | 0.00 | 0.00 | 69 | 1010.4 |
| 20260508152524 | 62 | 0 | 0.0 | 2.6 | 0.00 | 0.00 | 0.00 | 70 | 1010.4 |
| 20260508152024 | 62 | 0 | 0.0 | 2.6 | 0.00 | 0.00 | 0.00 | 69 | 1010.2 |
| 20260508151534 | 62 | 0 | 0.0 | 0.9 | 0.00 | 0.00 | 0.00 | 70 | 1010.2 |
| 20260508151026 | 61 | 0 | 0.0 | 0.9 | 0.00 | 0.00 | 0.00 | 70 | 1010.3 |
| 20260508150527 | 61 | 0 | 0.0 | 1.7 | 0.00 | 0.00 | 0.00 | 69 | 1010.3 |
| 20260508150042 | 61 | 0 | 0.0 | 1.7 | 0.00 | 0.00 | 0.00 | 69 | 1010.3 |